Location: Hurecourt
(47.9030°N, 6.0653°E)
Time: 04:35:23
(UTC+00:00)

Abrixas rocket - Pass Details

Date: 14 July 2020
Orbit: 339 x 347 km, 48.4° (Epoch: 06 August)

Event Time Altitude Azimuth Distance (km) Brightness Sun altitude
Rises 03:06:49 0° 281° (W) 2,125 5.5 -6.7°
Reaches altitude 10° 03:09:00 10° 268° (W) 1,283 4.3 -6.4°
Maximum altitude 03:11:27 25° 209° (SSW) 732 2.9 -6.1°
Drops below altitude 10° 03:13:52 10° 151° (SSE) 1,277 4.6 -5.8°
Sets 03:16:03 0° 137° (SE) 2,113 5.8 -5.5°
